Date String (YYYY-MM-DD hh:mm:ss) UTC,Instrument flags,absolute air pressure of the measurement (hPa),sample flow rate (lpm),inlet stack bypass flow (lpm),air temperature of the measurement (°C),ambient temperature measured by the external sensor (°C),aerosol sample conditioner tube jacket temperature (°C),OPC LED temperature (°C),internal box temperature (°C),relative humidity of the measurement (%),span deviation,mass concentration of particles derived from Lorenz-Mie calculation of OPC scattering (μg/m³),mass concentration of particles derived from Lorenz-Mie calculation of OPC scattering (μg/m³),mass concentration of particles derived from Lorenz-Mie calculation of OPC scattering (μg/m³)
DateTimeUTC,F1_M11,P_M11,Q1_M11,Q2_M11,T1_M11,T2_M11,T3_M11,T4_M11,T5_M11,U1_M11,ZSPAN_M11,X2_M11,X0_M11,X1_M11
2024-04-29 00:00:00,SystemResetWarning,0824.3,5.00,000.00,026.3,025.4,000.0,034.7,028.0,018.8,0000.0,0000.75,0001.02,0000.65
2024-04-29 00:01:00,SystemResetWarning,0824.3,5.00,000.00,026.3,025.4,000.0,034.7,028.0,018.9,0000.0,0000.77,0001.85,0000.63
2024-04-29 00:02:00,SystemResetWarning,0824.3,5.00,000.00,026.3,025.4,000.0,034.7,028.0,019.0,0000.0,0000.77,0002.10,0000.64
2024-04-29 00:03:00,SystemResetWarning,0824.3,5.01,000.00,026.3,025.4,000.0,034.7,028.0,019.0,0000.0,0000.78,0002.09,0000.64
2024-04-29 00:04:00,SystemResetWarning,0824.2,5.00,000.00,026.3,025.4,000.0,034.7,028.1,018.8,0000.0,0000.79,0002.11,0000.65
2024-04-29 00:05:00,SystemResetWarning,0824.2,5.00,000.00,026.3,025.4,000.0,034.7,028.1,018.9,0000.0,0000.77,0002.04,0000.64
2024-04-29 00:06:00,SystemResetWarning,0824.2,5.00,000.00,026.3,025.4,000.0,034.7,028.1,018.3,0000.0,0000.78,0002.04,0000.63
2024-04-29 00:07:00,SystemResetWarning,0824.1,5.00,000.00,026.3,025.4,000.0,034.7,028.0,017.9,0000.0,0000.78,0002.36,0000.64
2024-04-29 00:08:00,SystemResetWarning,0824.1,5.00,000.00,026.3,025.4,000.0,034.7,028.0,017.9,0000.0,0000.81,0002.45,0000.64
2024-04-29 00:09:00,SystemResetWarning,0824.2,5.00,000.00,026.3,025.4,000.0,034.7,028.0,018.0,0000.0,0000.82,0002.51,0000.63
2024-04-29 00:10:00,SystemResetWarning,0824.1,5.00,000.00,026.3,025.4,000.0,034.7,028.0,018.3,0000.0,0000.82,0002.51,0000.63
2024-04-29 00:11:00,SystemResetWarning,0824.2,5.00,000.00,026.3,025.4,000.0,034.7,028.0,018.0,0000.0,0000.81,0002.50,0000.63
2024-04-29 00:12:00,SystemResetWarning,0824.1,5.00,000.00,026.3,025.4,000.0,034.7,028.0,017.4,0000.0,0000.77,0001.80,0000.62
2024-04-29 00:13:00,SystemResetWarning,0824.1,5.00,000.00,026.3,025.4,000.0,034.7,028.1,017.0,0000.0,0000.73,0001.35,0000.60
2024-04-29 00:14:00,SystemResetWarning,0824.0,5.00,000.00,026.3,025.4,000.0,034.7,028.0,016.9,0000.0,0000.71,0001.32,0000.59
2024-04-29 00:15:00,SystemResetWarning,0824.0,5.00,000.00,026.3,025.4,000.0,034.7,028.0,016.8,0000.0,0000.69,0001.30,0000.58
2024-04-29 00:16:00,SystemResetWarning,0824.1,5.00,000.00,026.3,025.4,000.0,034.7,028.0,016.4,0000.0,0000.66,0001.24,0000.57
2024-04-29 00:17:00,SystemResetWarning,0824.0,5.00,000.00,026.3,025.4,000.0,034.7,028.0,016.5,0000.0,0000.65,0001.24,0000.55
2024-04-29 00:18:00,SystemResetWarning,0824.0,5.01,000.00,026.3,025.5,000.0,034.7,028.0,016.8,0000.0,0000.66,0001.01,0000.55
2024-04-29 00:19:00,SystemResetWarning,0824.0,5.00,000.00,026.3,025.5,000.0,034.7,028.1,016.8,0000.0,0000.67,0001.04,0000.53
2024-04-29 00:20:00,SystemResetWarning,0824.0,5.00,000.00,026.3,025.5,000.0,034.7,028.1,016.1,0000.0,0000.68,0001.05,0000.52
2024-04-29 00:21:00,SystemResetWarning,0824.0,5.00,000.00,026.3,025.5,000.0,034.7,028.1,016.3,0000.0,0000.68,0001.05,0000.51
2024-04-29 00:22:00,SystemResetWarning,0824.0,4.99,000.00,026.3,025.5,000.0,034.7,028.1,016.1,0000.0,0000.69,0001.08,0000.50
2024-04-29 00:23:00,SystemResetWarning,0824.0,5.00,000.00,026.3,025.5,000.0,034.7,028.1,015.9,0000.0,0000.69,0001.14,0000.49
2024-04-29 00:24:00,SystemResetWarning,0824.0,5.02,000.00,026.3,025.5,000.0,034.7,028.1,016.1,0000.0,0000.73,0001.94,0000.49
2024-04-29 00:25:00,SystemResetWarning,0824.0,5.00,000.00,026.3,025.5,000.0,034.7,028.1,016.0,0000.0,0000.75,0001.99,0000.49
2024-04-29 00:26:00,SystemResetWarning,0824.0,5.00,000.00,026.3,025.5,000.0,034.7,028.1,016.2,0000.0,0000.78,0002.08,0000.49
2024-04-29 00:27:00,SystemResetWarning,0824.1,4.99,000.00,026.3,025.6,000.0,034.7,028.1,015.3,0000.0,0000.82,0002.25,0000.49
2024-04-29 00:28:00,SystemResetWarning,0824.1,4.99,000.00,026.3,025.6,000.0,034.7,028.1,015.1,0000.0,0000.83,0002.35,0000.49
2024-04-29 00:29:00,SystemResetWarning,0824.2,5.00,000.00,026.3,025.6,000.0,034.7,028.1,015.8,0000.0,0000.83,0003.56,0000.48
2024-04-29 00:30:00,SystemResetWarning,0824.2,4.99,000.00,026.3,025.5,000.0,034.7,028.1,016.3,0000.0,0000.77,0003.65,0000.48
2024-04-29 00:31:00,SystemResetWarning,0824.1,5.00,000.00,026.3,025.5,000.0,034.7,028.1,016.5,0000.0,0000.75,0003.62,0000.47
2024-04-29 00:32:00,SystemResetWarning,0824.1,5.00,000.00,026.3,025.6,000.0,034.7,028.1,016.5,0000.0,0000.75,0003.59,0000.47
2024-04-29 00:33:00,SystemResetWarning,0824.1,5.01,000.00,026.3,025.6,000.0,034.7,028.1,016.3,0000.0,0000.74,0003.57,0000.46
2024-04-29 00:34:00,SystemResetWarning,0824.1,5.01,000.00,026.3,025.5,000.0,034.7,028.1,016.3,0000.0,0000.74,0003.58,0000.46
2024-04-29 00:35:00,SystemResetWarning,0824.2,4.99,000.00,026.3,025.5,000.0,034.7,028.1,016.6,0000.0,0000.73,0002.92,0000.45
2024-04-29 00:36:00,SystemResetWarning,0824.2,5.00,000.00,026.3,025.5,000.0,034.7,028.1,017.0,0000.0,0000.73,0002.85,0000.44
2024-04-29 00:37:00,SystemResetWarning,0824.2,5.00,000.00,026.3,025.5,000.0,034.8,028.1,016.5,0000.0,0000.71,0002.78,0000.43
2024-04-29 00:38:00,SystemResetWarning,0824.2,5.01,000.00,026.3,025.5,000.0,034.7,028.1,016.7,0000.0,0000.69,0002.69,0000.42
2024-04-29 00:39:00,SystemResetWarning,0824.2,5.00,000.00,026.3,025.5,000.0,034.7,028.0,016.9,0000.0,0000.68,0003.62,0000.42
2024-04-29 00:40:00,SystemResetWarning,0824.1,5.00,000.00,026.3,025.5,000.0,034.7,028.1,016.6,0000.0,0000.66,0003.01,0000.41
2024-04-29 00:41:00,SystemResetWarning,0824.1,4.99,000.00,026.3,025.5,000.0,034.7,028.1,016.8,0000.0,0000.66,0002.93,0000.41
2024-04-29 00:42:00,SystemResetWarning,0824.1,5.00,000.00,026.3,025.5,000.0,034.7,028.1,016.9,0000.0,0000.65,0002.91,0000.41
2024-04-29 00:43:00,SystemResetWarning,0824.0,5.00,000.00,026.3,025.5,000.0,034.7,028.1,016.9,0000.0,0000.63,0002.89,0000.40
2024-04-29 00:44:00,SystemResetWarning,0824.1,5.00,000.00,026.3,025.5,000.0,034.7,028.1,017.0,0000.0,0000.61,0002.84,0000.39
2024-04-29 00:45:00,SystemResetWarning,0824.0,5.00,000.00,026.3,025.5,000.0,034.7,028.1,016.3,0000.0,0000.59,0002.81,0000.40
2024-04-29 00:46:00,SystemResetWarning,0824.0,5.00,000.00,026.3,025.5,000.0,034.7,028.1,016.6,0000.0,0000.57,0002.77,0000.40
2024-04-29 00:47:00,SystemResetWarning,0824.0,5.00,000.00,026.3,025.5,000.0,034.7,028.1,016.2,0000.0,0000.52,0002.64,0000.40
2024-04-29 00:48:00,SystemResetWarning,0824.0,5.00,000.00,026.3,025.5,000.0,034.7,028.1,016.8,0000.0,0000.52,0002.63,0000.40
2024-04-29 00:49:00,SystemResetWarning,0824.0,5.00,000.00,026.3,025.5,000.0,034.8,028.1,015.8,0000.0,0000.53,0002.89,0000.40
2024-04-29 00:50:00,SystemResetWarning,0824.0,5.00,000.00,026.3,025.6,000.0,034.8,028.1,015.9,0000.0,0000.51,0002.07,0000.40
2024-04-29 00:51:00,SystemResetWarning,0824.0,5.00,000.00,026.3,025.6,000.0,034.7,028.2,016.0,0000.0,0000.52,0001.50,0000.41
2024-04-29 00:52:00,SystemResetWarning,0824.0,5.00,000.00,026.3,025.6,000.0,034.8,028.2,015.5,0000.0,0000.52,0001.14,0000.41
2024-04-29 00:53:00,SystemResetWarning,0824.0,5.00,000.00,026.3,025.6,000.0,034.8,028.2,015.5,0000.0,0000.54,0001.18,0000.40
2024-04-29 00:54:00,SystemResetWarning,0824.0,5.00,000.00,026.4,025.6,000.0,034.8,028.2,014.8,0000.0,0000.58,0001.28,0000.41
2024-04-29 00:55:00,SystemResetWarning,0824.0,5.00,000.00,026.4,025.6,000.0,034.8,028.2,015.1,0000.0,0000.60,0001.32,0000.42
2024-04-29 00:56:00,SystemResetWarning,0824.0,5.00,000.00,026.4,025.7,000.0,034.8,028.2,015.2,0000.0,0000.61,0001.35,0000.42
2024-04-29 00:57:00,SystemResetWarning,0824.0,5.00,000.00,026.4,025.7,000.0,034.8,028.2,014.8,0000.0,0000.64,0001.39,0000.43
2024-04-29 00:58:00,SystemResetWarning,0824.0,5.00,000.00,026.4,025.7,000.0,034.8,028.3,014.9,0000.0,0000.67,0001.46,0000.43
2024-04-29 00:59:00,SystemResetWarning,0824.0,5.00,000.00,026.4,025.7,000.0,034.8,028.3,014.6,0000.0,0000.70,0001.50,0000.44
